Location: Lake Sonoma
(38.7200°N, 123.0564°W)
Time: 21:07:33
(UTC-07:00)

Amateur Radio Satellites - All Passes

Search period start: 28 May 2015 20:37
Search period end: 29 May 2015 20:37
Location: Lake Sonoma, 38.7200°N, 123.0564°W

Satellite Date Start Highest point End Downlink Frequencies (MHz)
Time Altitude Azimuth
PRISM 28 May 20:40:30 20:44:26 41° 287° (WNW) 20:48:20 437.425
AAUSAT CUBESAT 2 28 May 20:45:56 20:49:16 24° 71° (ENE) 20:52:42 437.432
M-CUBED/EXP-1 PRIME 28 May 20:53:10 20:56:29 90° 344° (NNW) 20:59:50 437.505
AUBIESAT-1 28 May 20:59:21 21:02:40 88° 297° (WNW) 21:06:02 437.475
DELFI C3 28 May 21:01:44 21:02:58 11° 66° (ENE) 21:04:24 145.870
HO-68 28 May 21:03:42 21:10:55 88° 74° (ENE) 21:18:09 435.675
GOMX 1 28 May 21:04:07 21:09:15 72° 259° (WSW) 21:14:43 467.674
UWE-3 28 May 21:04:37 21:07:16 16° 67° (ENE) 21:10:07 435.000/436.395/437.385
FUNcube-1 28 May 21:09:47 21:11:49 13° 66° (ENE) 21:14:04 145.935
BRITE-PL 28 May 21:12:32 21:17:20 39° 265° (W) 21:22:26 437.365/2234.400
CINEMA 3 28 May 21:17:57 21:22:47 53° 74° (ENE) 21:27:43 145.822/145.860
Cosmos 2504 28 May 21:23:34 21:30:38 59° 79° (E) 21:37:46 435.465 / 435.565
YUBILEINY 28 May 21:32:48 21:36:21 12° 282° (WNW) 21:39:12 435.215
Cosmos 2491 28 May 21:33:00 21:40:18 27° 293° (WNW) 21:47:23 435.465 / 435.565
CANX-2 28 May 21:38:01 21:42:02 39° 262° (W) 21:46:01 2200.000
CUTE 1.7 + AOD 2 28 May 21:41:13 21:45:15 40° 262° (W) 21:49:15 437.475
UKube-1 28 May 21:48:17 21:50:42 15° 66° (ENE) 21:53:18 .
ZACube-1 28 May 21:48:53 21:53:01 34° 72° (ENE) 21:57:11 437.345
DOVE 4 28 May 21:55:32 22:00:13 34° 265° (W) 22:05:00 437.250
AIST 1 28 May 21:55:42 21:59:05 22° 287° (WNW) 22:02:25
CUBEBUG 2 28 May 21:55:44 22:00:28 66° 75° (ENE) 22:05:12 437.445
Oscar 11 28 May 21:56:24 22:00:44 74° 75° (ENE) 22:05:03 145.826/435.025
DX 1 28 May 21:59:11 22:02:27 22° 68° (ENE) 22:05:51 434.975-435.025
SEEDS 28 May 22:00:55 22:04:38 29° 264° (W) 22:08:18 437.485
COMPASS 1 28 May 22:10:51 22:14:29 28° 265° (W) 22:18:04 437.405
AAUSAT CUBESAT 2 28 May 22:21:22 22:24:50 25° 265° (W) 22:28:14 437.432
VELOX 1 28 May 22:21:44 22:24:47 19° 67° (ENE) 22:27:59 145.980
ESTCUBE 1 28 May 22:33:33 22:36:00 15° 66° (ENE) 22:38:39 437.505/2401.250
DELFI C3 28 May 22:33:43 22:37:40 54° 260° (W) 22:41:37 145.870
UWE-3 28 May 22:38:50 22:43:25 53° 261° (W) 22:48:00 435.000/436.395/437.385
FUNcube-1 28 May 22:43:09 22:47:42 61° 260° (W) 22:52:14 145.935
DANDE 28 May 22:49:39 22:52:41 13° 54° (NE) 22:55:54 436.750
AISAT 28 May 22:52:52 22:57:02 42° 72° (ENE) 23:01:17 437.250
ANTELSAT 28 May 22:54:59 22:57:57 18° 92° (E) 23:01:01 437.575/2403.000
HO-68 28 May 22:55:39 22:59:40 15° 272° (W) 23:03:13 435.675
CINEMA 3 28 May 22:57:04 23:00:21 17° 270° (W) 23:03:24 145.822/145.860
HUMSAT D 28 May 23:01:21 23:05:41 82° 260° (W) 23:10:00 437.325/437.525
CUSAT 1 28 May 23:05:35 23:10:21 20° 60° (ENE) 23:14:36 437.405
ISS 28 May 23:06:25 23:09:38 75° 141° (SE) 23:12:53 145.825
Cosmos 2504 28 May 23:18:13 23:23:29 21° 275° (W) 23:28:28 435.465 / 435.565
UKube-1 28 May 23:22:19 23:26:29 46° 261° (W) 23:30:41 .
QB50P1 28 May 23:23:47 23:26:31 17° 92° (E) 23:29:22 145.935-145.965
ZACube-1 28 May 23:25:53 23:29:27 21° 267° (W) 23:32:54 437.345
TIGRISAT 28 May 23:25:57 23:30:02 40° 98° (E) 23:34:04 435.000
POLYITAN 1 28 May 23:26:50 23:29:47 19° 92° (E) 23:32:51 437.675
50 SAT 28 May 23:27:55 23:31:54 69° 259° (WSW) 23:35:53 437.505
DX 1 28 May 23:34:38 23:38:33 31° 263° (W) 23:42:27 434.975-435.025
CUBEBUG 2 28 May 23:35:43 23:37:40 12° 272° (W) 23:39:19 437.445
PCSat 28 May 23:38:17 23:41:12 15° 105° (ESE) 23:44:23 145.827
UNISAT 6 28 May 23:47:10 23:51:33 75° 102° (ESE) 23:55:49 437.425
CUBEBUG 1 28 May 23:48:31 23:52:52 85° 77° (ENE) 23:57:17 437.445
NANOSAT C BR1 28 May 23:53:22 23:57:19 36° 97° (E) 00:01:16 145.865
VELOX 1 28 May 23:56:57 00:01:06 38° 262° (W) 00:05:15 145.980
GONETS M04 29 May 00:01:11 00:09:19 41° 73° (ENE) 00:17:28
QB50P2 29 May 00:02:54 00:07:03 49° 99° (E) 00:11:12 145.880/145.840
ESTCUBE 1 29 May 00:08:09 00:12:31 50° 261° (W) 00:16:53 437.505/2401.250
POPSAT HIP 1 29 May 00:14:32 00:18:49 66° 101° (E) 00:23:02 437.405
DUCHIFAT 1 29 May 00:14:39 00:18:55 64° 101° (E) 00:23:06 145.980
SPROUT 29 May 00:19:05 00:23:14 48° 74° (ENE) 00:27:26 437.525
VERMONT LUNAR 29 May 00:26:19 00:28:30 17° 148° (SSE) 00:30:43 437.305
BUGSAT 1 29 May 00:27:48 00:32:03 62° 101° (E) 00:36:14 437.445
DANDE 29 May 00:30:12 00:37:52 75° 79° (ENE) 00:43:43 436.750
ANTELSAT 29 May 00:30:55 00:34:54 35° 289° (WNW) 00:38:46 437.575/2403.000
AISAT 29 May 00:30:57 00:33:52 16° 269° (W) 00:36:38 437.250
TISAT 1 29 May 00:33:45 00:37:52 51° 74° (ENE) 00:42:02 437.305
ISS 29 May 00:44:06 00:46:23 17° 337° (NNW) 00:48:39 145.825
CUSAT 1 29 May 00:47:10 00:53:59 61° 267° (W) 00:59:08 437.405
ITUPSAT 1 29 May 00:54:03 00:56:35 15° 65° (ENE) 00:59:20 437.325
QB50P1 29 May 00:58:36 01:02:34 37° 288° (WNW) 01:06:28 145.935-145.965
BEESAT 29 May 00:59:45 01:02:46 17° 66° (ENE) 01:05:57 436.000
POLYITAN 1 29 May 01:01:55 01:05:50 34° 288° (WNW) 01:09:38 437.675
TIGRISAT 29 May 01:03:38 01:06:30 17° 293° (WNW) 01:09:12 435.000
SWISSCUBE 29 May 01:07:56 01:11:33 23° 68° (ENE) 01:15:18 437.505
O/OREOS (USA 219) 29 May 01:18:06 01:22:21 41° 64° (ENE) 01:26:36 437.305
PCSat 29 May 01:18:45 01:24:08 66° 301° (WNW) 01:29:32 145.827
PHONESAT 2.4 29 May 01:22:13 01:23:59 14° 146° (SE) 01:25:50 2401.200-2431.200
NANOSAT C BR1 29 May 01:29:56 01:32:55 18° 292° (WNW) 01:35:45 145.865
BEESAT 2 29 May 01:35:09 01:35:39 10° 39° (NE) 01:36:19 435.950
QB50P2 29 May 01:40:16 01:42:34 14° 294° (WNW) 01:44:42 145.880/145.840
Cosmos 2499 29 May 01:46:24 01:52:31 32° 72° (ENE) 01:58:52 435.465 / 435.565
DUCHIFAT 1 29 May 01:52:58 01:54:13 11° 295° (WNW) 01:55:15 145.980
POPSAT HIP 1 29 May 01:53:02 01:54:11 11° 296° (WNW) 01:55:05 437.405
Oscar 19 29 May 01:56:16 02:00:32 27° 94° (E) 02:04:52 437.125/150
SPROUT 29 May 01:57:24 01:59:40 13° 270° (W) 02:01:42 437.525
GONETS M04 29 May 01:58:07 02:06:11 41° 272° (W) 02:14:03
VERMONT LUNAR 29 May 02:02:09 02:05:22 73° 163° (SSE) 02:08:35 437.305
KKS-1 29 May 02:04:44 02:06:52 14° 65° (ENE) 02:09:14 437.445
BUGSAT 1 29 May 02:05:32 02:07:02 11° 295° (WNW) 02:08:18 437.445
TISAT 1 29 May 02:12:10 02:14:01 12° 270° (W) 02:15:39 437.305
DANDE 29 May 02:15:26 02:19:55 17° 280° (W) 02:23:32 436.750
ITAMSAT 1 29 May 02:17:40 02:19:03 11° 88° (E) 02:20:48 435.822/435.867
BEESAT 3 29 May 02:18:42 02:22:18 29° 51° (NE) 02:25:53 437.485
SO-50 29 May 02:26:03 02:30:03 30° 113° (ESE) 02:34:15 436.795
ITUPSAT 1 29 May 02:29:22 02:34:03 57° 260° (W) 02:38:46 437.325
BEESAT 29 May 02:35:41 02:40:17 48° 261° (W) 02:44:53 436.000
SWISSCUBE 29 May 02:44:52 02:49:15 35° 263° (W) 02:53:35 437.505
PHONESAT 2.4 29 May 02:58:15 03:01:41 58° 160° (SSE) 03:05:08 2401.200-2431.200
O/OREOS (USA 219) 29 May 02:58:34 03:01:28 17° 259° (WSW) 03:04:11 437.305
STARS 29 May 03:01:11 03:05:09 33° 71° (ENE) 03:09:11 437.465
Gurwin Techsat 1B 29 May 03:06:10 03:10:59 35° 96° (E) 03:15:50 435.225
PCSat 29 May 03:06:50 03:08:42 11° 321° (NW) 03:10:19 145.827
BEESAT 2 29 May 03:10:20 03:14:27 85° 59° (ENE) 03:18:30 435.950
AIST 2 29 May 03:15:23 03:19:02 28° 50° (NE) 03:22:40 435.215
Oscar 19 29 May 03:35:18 03:39:57 34° 290° (WNW) 03:44:29 437.125/150
KKS-1 29 May 03:38:41 03:43:05 56° 260° (W) 03:47:32 437.445
Cosmos 2499 29 May 03:39:15 03:45:47 41° 270° (W) 03:52:22 435.465 / 435.565
VERMONT LUNAR 29 May 03:39:27 03:42:38 60° 360° (N) 03:45:49 437.305
MOZHAYETS 4 29 May 03:50:17 03:52:40 15° 66° (ENE) 03:55:15
ITAMSAT 1 29 May 03:54:01 03:59:16 79° 284° (WNW) 04:04:29 435.822/435.867
BEESAT 3 29 May 03:56:53 04:00:09 23° 247° (WSW) 04:03:18 437.485
JAS-2 29 May 03:58:16 04:01:44 18° 92° (E) 04:05:30 435.910
ISS 29 May 03:59:49 04:01:27 13° 17° (NNE) 04:03:09 145.825
SO-50 29 May 04:06:19 04:10:33 32° 311° (NW) 04:14:53 436.795
HORYU 2 29 May 04:24:41 04:28:39 32° 97° (E) 04:32:38 437.375
PHONESAT 2.4 29 May 04:36:22 04:39:49 64° 355° (N) 04:43:17 2401.200-2431.200
STARS 29 May 04:38:17 04:41:41 21° 267° (W) 04:45:00 437.465
Gurwin Techsat 1B 29 May 04:46:21 04:50:51 28° 292° (WNW) 04:55:16 435.225
AIST 2 29 May 04:53:59 04:57:33 26° 247° (WSW) 05:01:00 435.215
AO-7 29 May 04:56:36 05:04:43 53° 101° (E) 05:12:52 29.400- 29.500
VERMONT LUNAR 29 May 05:16:42 05:19:56 82° 193° (SSW) 05:23:07 437.305
MOZHAYETS 4 29 May 05:25:01 05:29:30 54° 261° (W) 05:33:59
ISS 29 May 05:35:14 05:38:27 57° 36° (NE) 05:41:40 145.825
CUBESAT XI-V 29 May 05:35:34 05:38:07 15° 66° (ENE) 05:40:52 437.345
JAS-2 29 May 05:42:15 05:47:13 47° 288° (WNW) 05:52:21 435.910
Cosmos 2491 29 May 05:46:45 05:54:03 29° 68° (ENE) 06:01:32 435.465 / 435.565
HORYU 2 29 May 06:01:42 06:05:08 22° 292° (WNW) 06:08:27 437.375
PHONESAT 2.4 29 May 06:14:36 06:18:05 84° 17° (NNE) 06:21:33 2401.200-2431.200
STRAND 1 29 May 06:14:49 06:18:11 19° 65° (ENE) 06:21:45 437.568
CUTE-I 29 May 06:25:54 06:29:17 17° 91° (E) 06:32:54 437.470
YUBILEINY 29 May 06:36:45 06:43:20 26° 84° (E) 06:50:14 435.215
Cubesat XI-IV 29 May 06:46:26 06:50:57 28° 95° (E) 06:55:34 437.490
AO-7 29 May 06:49:54 06:57:16 35° 299° (WNW) 07:04:29 29.400- 29.500
VERMONT LUNAR 29 May 06:54:24 06:56:50 20° 211° (SSW) 06:59:13 437.305
CUBESAT XI-V 29 May 07:10:41 07:15:10 52° 261° (W) 07:19:42 437.345
ISS 29 May 07:12:51 07:14:34 13° 230° (SW) 07:16:10 145.825
PRISM 29 May 07:28:54 07:32:57 68° 258° (WSW) 07:37:02 437.425
M-CUBED/EXP-1 PRIME 29 May 07:39:46 07:43:59 84° 252° (WSW) 07:47:52 437.505
Cosmos 2491 29 May 07:42:53 07:51:31 59° 268° (W) 08:00:02 435.465 / 435.565
AUBIESAT-1 29 May 07:45:31 07:49:41 83° 252° (WSW) 07:53:31 437.475
STRAND 1 29 May 07:52:06 07:57:02 51° 260° (W) 08:02:01 437.568
PHONESAT 2.4 29 May 07:52:58 07:56:00 28° 208° (SSW) 07:59:01 2401.200-2431.200
AIST 1 29 May 08:02:53 08:07:18 76° 82° (E) 08:11:42
CUTE-I 29 May 08:04:32 08:09:47 56° 288° (WNW) 08:15:01 437.470
Cubesat XI-IV 29 May 08:26:14 08:31:07 35° 291° (WNW) 08:35:55 437.490
PCSat 29 May 08:26:45 08:28:52 12° 40° (NE) 08:31:14 145.827
YUBILEINY 29 May 08:30:53 08:39:35 64° 281° (W) 08:48:14 435.215
HO-68 29 May 08:34:47 08:39:02 17° 89° (E) 08:43:40 435.675
RS-15 29 May 08:37:49 08:48:12 56° 113° (ESE) 08:58:56 29.354- 29.394
GOMX 1 29 May 09:08:04 09:13:03 41° 96° (E) 09:17:46 467.674
CINEMA 3 29 May 09:16:35 09:18:41 13° 88° (E) 09:20:58 145.822/145.860
BRITE-PL 29 May 09:18:30 09:24:09 83° 100° (E) 09:29:28 437.365/2234.400
CANX-2 29 May 09:24:31 09:28:25 36° 97° (E) 09:32:19 2200.000
CUTE 1.7 + AOD 2 29 May 09:27:41 09:31:33 35° 97° (E) 09:35:26 437.475
SEEDS 29 May 09:45:59 09:50:01 47° 99° (E) 09:54:04 437.485
Oscar 11 29 May 09:46:35 09:48:52 15° 90° (E) 09:51:22 145.826/435.025
CUBEBUG 2 29 May 09:50:12 09:52:30 14° 89° (E) 09:54:58 437.445
ANTELSAT 29 May 09:53:04 09:55:56 17° 67° (ENE) 09:58:55 437.575/2403.000
COMPASS 1 29 May 09:54:56 09:58:58 48° 99° (E) 10:02:59 437.405
DOVE 4 29 May 09:55:58 10:01:04 81° 104° (ESE) 10:05:48 437.250
Cosmos 2504 29 May 09:59:05 10:07:05 54° 92° (E) 10:14:38 435.465 / 435.565
AAUSAT CUBESAT 2 29 May 10:04:45 10:08:49 54° 100° (E) 10:12:52 437.432
PCSat 29 May 10:07:55 10:13:21 73° 60° (ENE) 10:18:46 145.827
DELFI C3 29 May 10:14:52 10:17:54 21° 94° (E) 10:21:02 145.870
QB50P1 29 May 10:16:46 10:18:15 12° 65° (ENE) 10:19:57 145.935-145.965
POLYITAN 1 29 May 10:19:45 10:21:43 13° 66° (ENE) 10:23:53 437.675
HO-68 29 May 10:20:28 10:27:38 79° 287° (WNW) 10:34:45 435.675
TIGRISAT 29 May 10:23:11 10:27:19 33° 71° (ENE) 10:31:28 435.000
UWE-3 29 May 10:30:39 10:34:34 33° 96° (E) 10:38:24 435.000/436.395/437.385
FUNcube-1 29 May 10:33:37 10:37:14 27° 95° (E) 10:40:49 145.935
YUBILEINY 29 May 10:36:12 10:38:41 11° 305° (NW) 10:40:24 435.215
UNISAT 6 29 May 10:44:20 10:48:54 57° 74° (ENE) 10:53:28 437.425
NANOSAT C BR1 29 May 10:44:58 10:48:22 24° 69° (ENE) 10:51:52 145.865
GOMX 1 29 May 10:46:42 10:50:54 23° 293° (WNW) 10:54:47 467.674
HUMSAT D 29 May 10:48:01 10:50:41 17° 92° (E) 10:53:29 437.325/437.525
RS-15 29 May 10:50:38 11:00:58 44° 316° (NW) 11:11:29 29.354- 29.394
CINEMA 3 29 May 10:51:48 10:56:22 53° 286° (WNW) 11:00:42 145.822/145.860
QB50P2 29 May 10:54:37 10:58:23 32° 71° (ENE) 11:02:14 145.880/145.840
SO-50 29 May 10:58:36 11:02:30 23° 45° (NE) 11:06:27 436.795
BRITE-PL 29 May 10:59:07 11:01:55 14° 298° (WNW) 11:04:22 437.365/2234.400
CANX-2 29 May 11:01:15 11:04:06 17° 292° (WNW) 11:06:49 2200.000
CUTE 1.7 + AOD 2 29 May 11:04:19 11:07:14 18° 292° (WNW) 11:10:00 437.475
DUCHIFAT 1 29 May 11:05:38 11:09:36 39° 72° (ENE) 11:13:38 145.980
POPSAT HIP 1 29 May 11:05:55 11:09:56 41° 73° (ENE) 11:14:01 437.405
50 SAT 29 May 11:07:03 11:09:08 14° 91° (E) 11:11:22 437.505
UKube-1 29 May 11:11:15 11:15:06 30° 97° (E) 11:18:58 .
ZACube-1 29 May 11:14:51 11:19:10 86° 99° (E) 11:23:23 437.345
BUGSAT 1 29 May 11:16:35 11:20:21 35° 72° (ENE) 11:24:15 437.445
Oscar 11 29 May 11:21:14 11:25:20 44° 287° (WNW) 11:29:24 145.826/435.025
SEEDS 29 May 11:23:16 11:25:28 14° 293° (WNW) 11:27:28 437.485
DX 1 29 May 11:23:47 11:28:01 46° 99° (E) 11:32:15 434.975-435.025
CUBEBUG 2 29 May 11:25:20 11:29:33 44° 287° (WNW) 11:33:36 437.445
ANTELSAT 29 May 11:27:50 11:32:23 48° 261° (W) 11:36:52 437.575/2403.000
COMPASS 1 29 May 11:32:10 11:34:16 13° 293° (WNW) 11:36:11 437.405
DOVE 4 29 May 11:36:16 11:38:05 12° 298° (WNW) 11:39:36 437.250
CUBEBUG 1 29 May 11:39:47 11:42:42 18° 92° (E) 11:45:47 437.445
AAUSAT CUBESAT 2 29 May 11:42:18 11:44:01 12° 294° (WNW) 11:45:31 437.432
JUGNU 29 May 11:45:44 11:47:43 12° 181° (S) 11:49:41 437.505
VELOX 1 29 May 11:48:30 11:52:46 43° 99° (E) 11:57:02 145.980
QB50P1 29 May 11:49:25 11:53:39 60° 260° (W) 11:57:55 145.935-145.965
DELFI C3 29 May 11:49:37 11:53:01 26° 289° (WNW) 11:56:22 145.870
POLYITAN 1 29 May 11:53:00 11:57:13 54° 260° (W) 12:01:27 437.675
PCSat 29 May 11:53:28 11:56:13 14° 255° (WSW) 11:58:39 145.827
Cosmos 2504 29 May 11:53:50 12:00:50 29° 289° (WNW) 12:07:16 435.465 / 435.565
DANDE 29 May 11:56:39 12:01:07 18° 81° (E) 12:06:25 436.750
TIGRISAT 29 May 12:00:18 12:04:06 23° 266° (W) 12:07:46 435.000
ESTCUBE 1 29 May 12:02:09 12:06:20 36° 97° (E) 12:10:33 437.505/2401.250
CUSAT 1 29 May 12:07:25 12:13:32 29° 86° (E) 12:20:24 437.405
UWE-3 29 May 12:07:41 12:10:54 20° 292° (WNW) 12:13:56 435.000/436.395/437.385
FUNcube-1 29 May 12:10:01 12:13:28 23° 291° (WNW) 12:16:46 145.935
HO-68 29 May 12:10:36 12:14:23 15° 304° (NW) 12:17:48 435.675
NANOSAT C BR1 29 May 12:20:26 12:24:07 27° 265° (W) 12:27:45 145.865
AISAT 29 May 12:21:00 12:25:30 78° 285° (WNW) 12:29:59 437.250
HUMSAT D 29 May 12:22:49 12:26:36 34° 288° (WNW) 12:30:17 437.325/437.525
UNISAT 6 29 May 12:23:41 12:26:05 13° 270° (W) 12:28:13 437.425
QB50P2 29 May 12:31:06 12:34:21 20° 267° (W) 12:37:32 145.880/145.840
SO-50 29 May 12:38:33 12:43:21 49° 244° (WSW) 12:48:01 436.795
50 SAT 29 May 12:40:28 12:44:02 35° 288° (WNW) 12:47:32 437.505
DUCHIFAT 1 29 May 12:42:52 12:45:38 16° 269° (W) 12:48:14 145.980
POPSAT HIP 1 29 May 12:43:21 12:46:03 16° 269° (W) 12:48:34 437.405
UKube-1 29 May 12:47:40 12:51:05 22° 292° (WNW) 12:54:24 .
BUGSAT 1 29 May 12:53:09 12:56:00 17° 268° (W) 12:58:44 437.445
GONETS M04 29 May 13:00:09 13:08:28 50° 90° (E) 13:16:54
DX 1 29 May 13:01:13 13:03:55 16° 294° (WNW) 13:06:27 434.975-435.025
SRMSAT 29 May 13:08:15 13:10:08 12° 179° (S) 13:12:03 437.500
RS-15 29 May 13:10:14 13:17:31 18° 348° (NNW) 13:24:49 29.354- 29.394
Oscar 19 29 May 13:11:40 13:16:18 35° 70° (ENE) 13:21:01 437.125/150
CUBEBUG 1 29 May 13:15:06 13:19:15 39° 288° (WNW) 13:23:22 437.445
VELOX 1 29 May 13:26:01 13:29:01 17° 293° (WNW) 13:31:51 145.980
ITAMSAT 1 29 May 13:33:42 13:36:49 17° 64° (ENE) 13:40:08 435.822/435.867
DANDE 29 May 13:35:53 13:43:11 89° 278° (W) 13:51:47 436.750
ESTCUBE 1 29 May 13:39:36 13:42:59 20° 292° (WNW) 13:46:16 437.505/2401.250
SPROUT 29 May 13:42:51 13:47:11 69° 284° (WNW) 13:51:28 437.525
CUSAT 1 29 May 13:48:15 13:55:42 61° 284° (WNW) 14:03:57 437.405
TISAT 1 29 May 13:55:05 13:59:22 70° 284° (WNW) 14:03:35 437.305
AO-7 29 May 14:07:19 14:10:39 13° 49° (NE) 14:14:27 29.400- 29.500
Cosmos 2499 29 May 14:21:42 14:28:10 29° 87° (E) 14:34:30 435.465 / 435.565
Gurwin Techsat 1B 29 May 14:25:51 14:30:55 48° 72° (ENE) 14:36:02 435.225
ITUPSAT 1 29 May 14:31:20 14:35:49 40° 98° (E) 14:40:20 437.325
BEESAT 29 May 14:37:05 14:41:41 47° 99° (E) 14:46:18 436.000
SWISSCUBE 29 May 14:45:57 14:50:43 64° 101° (E) 14:55:27 437.505
Oscar 19 29 May 14:51:19 14:55:43 27° 266° (W) 15:00:02 437.125/150
GONETS M04 29 May 14:57:40 15:05:37 35° 289° (WNW) 15:13:26
ITAMSAT 1 29 May 15:10:47 15:15:53 59° 259° (W) 15:21:01 435.822/435.867
HORYU 2 29 May 15:21:53 15:25:35 27° 69° (ENE) 15:29:22 437.375
DANDE 29 May 15:22:22 15:27:53 20° 301° (WNW) 15:33:26 436.750
RS-15 29 May 15:27:27 15:35:47 23° 23° (NNE) 15:44:40 29.354- 29.394
O/OREOS (USA 219) 29 May 15:28:43 15:33:10 65° 109° (ESE) 15:37:38 437.305
KKS-1 29 May 15:31:25 15:35:20 30° 96° (E) 15:39:16 437.445
CUSAT 1 29 May 15:37:07 15:40:26 12° 306° (NW) 15:43:15 437.405
JAS-2 29 May 15:51:54 15:58:23 61° 74° (ENE) 16:04:09 435.910
AO-7 29 May 15:53:53 16:02:00 63° 68° (ENE) 16:10:12 29.400- 29.500
Gurwin Techsat 1B 29 May 16:07:21 16:11:13 20° 268° (W) 16:14:54 435.225
ITUPSAT 1 29 May 16:09:53 16:13:28 21° 293° (WNW) 16:16:57 437.325
Cosmos 2499 29 May 16:13:13 16:21:04 51° 283° (WNW) 16:28:19 435.465 / 435.565
BEESAT 29 May 16:15:57 16:19:12 18° 294° (WNW) 16:22:18 436.000
SWISSCUBE 29 May 16:25:39 16:28:05 14° 296° (WNW) 16:30:19 437.505
STARS 29 May 16:28:00 16:32:27 80° 102° (ESE) 16:36:51 437.465
YUBILEINY 29 May 16:51:14 16:52:02 10° 54° (NE) 16:53:37 435.215
HORYU 2 29 May 16:58:21 17:02:10 27° 264° (W) 17:05:57 437.375
BEESAT 2 29 May 17:03:30 17:06:36 21° 112° (ESE) 17:09:50 435.950
KKS-1 29 May 17:08:14 17:11:51 24° 291° (WNW) 17:15:21 437.445
O/OREOS (USA 219) 29 May 17:10:56 17:13:07 13° 307° (NW) 17:15:06 437.305
MOZHAYETS 4 29 May 17:21:28 17:25:44 38° 97° (E) 17:30:01
JAS-2 29 May 17:39:08 17:43:49 19° 267° (W) 17:47:54 435.910
RS-15 29 May 17:39:53 17:51:22 62° 52° (NE) 18:03:22 29.354- 29.394
CUTE-I 29 May 17:46:18 17:50:34 26° 67° (ENE) 17:54:57 437.470
BEESAT 3 29 May 17:47:19 17:51:23 86° 121° (ESE) 17:55:31 437.485
AO-7 29 May 17:48:31 17:55:23 27° 266° (W) 18:02:01 29.400- 29.500
Cubesat XI-IV 29 May 18:07:06 18:12:00 40° 70° (ENE) 18:16:59 437.490
BEESAT 2 29 May 18:40:47 18:44:32 32° 308° (NW) 18:48:17 435.950
YUBILEINY 29 May 18:42:38 18:51:13 62° 78° (ENE) 18:59:49 435.215
Cosmos 2491 29 May 18:46:25 18:53:56 35° 86° (E) 19:01:42 435.465 / 435.565
AIST 2 29 May 18:49:38 18:53:54 88° 121° (ESE) 18:58:12 435.215
BRITE-PL 29 May 18:53:57 18:54:42 10° 60° (ENE) 18:55:48 437.365/2234.400
MOZHAYETS 4 29 May 18:59:23 19:02:43 20° 292° (WNW) 19:05:56
HO-68 29 May 19:04:49 19:07:25 13° 54° (NE) 19:10:27 435.675
CUBESAT XI-V 29 May 19:08:36 19:13:04 42° 98° (E) 19:17:33 437.345
PRISM 29 May 19:13:24 19:16:12 18° 93° (E) 19:19:08 437.425
CUTE-I 29 May 19:25:33 19:30:29 38° 263° (W) 19:35:25 437.470
BEESAT 3 29 May 19:28:36 19:30:01 11° 319° (NW) 19:31:16 437.485
Cubesat XI-IV 29 May 19:48:00 19:52:17 24° 267° (W) 19:56:27 437.490
RS-15 29 May 19:52:54 20:03:30 40° 251° (WSW) 20:14:09 29.354- 29.394
Cosmos 2504 29 May 19:55:05 19:58:33 14° 62° (ENE) 20:02:29 435.465 / 435.565
STRAND 1 29 May 20:03:44 20:08:50 60° 101° (ESE) 20:13:56 437.568
GOMX 1 29 May 20:14:06 20:18:53 39° 71° (ENE) 20:23:57 467.674
CANX-2 29 May 20:16:37 20:19:57 23° 70° (ENE) 20:23:22 2200.000
CINEMA 3 29 May 20:17:08 20:19:25 14° 64° (ENE) 20:21:59 145.822/145.860
CUTE 1.7 + AOD 2 29 May 20:19:44 20:23:01 23° 70° (ENE) 20:26:23 437.475
AIST 2 29 May 20:31:26 20:33:09 12° 319° (NW) 20:34:42 435.215
